Theta_e
341 343 345 345 345 344 343 344 345 345 345 347 347 346 346 346 347 348 348 349 348 349 349 340 344 348 349 349 352 352 352 349 344 346 345 344 343 343 344 345 345 346 345
342 345 345 345 344 344 343 343 343 343 343 347 347 346 346 346 346 347 349 350 349 348 348 349 347 347 348 350 350 351 350 350 347 350 345 338 341 344 344 344 344 344 344
344 345 344 344 344 343 342 343 342 341 343 347 348 347 347 347 349 349 349 349 349 348 348 348 347 348 348 350 350 351 350 350 347 347 348 345 343 340 340 340 339 342 342
344 344 343 343 344 344 344 344 343 345 345 346 348 346 347 349 348 348 349 349 347 347 349 348 346 348 349 350 351 350 350 350 348 344 343 343 341 337 341 341 337 338 338
342 342 342 343 344 344 344 343 343 344 343 346 347 348 348 346 346 347 348 348 350 350 350 351 350 349 349 348 351 350 349 350 346 345 343 340 337 337 335 335 334 334 336
343 341 342 343 343 345 344 344 344 344 346 347 349 348 347 348 348 348 348 347 349 350 352 349 350 350 348 350 348 349 349 348 350 346 344 344 342 340 336 333 333 335 339
344 343 342 342 343 345 345 345 344 344 347 347 348 348 348 347 348 347 347 348 347 347 348 350 349 350 350 349 350 351 348 349 349 348 345 343 345 343 337 334 338 341 341
344 343 343 342 343 345 345 345 345 344 345 347 347 348 347 347 347 347 346 348 347 347 347 348 350 347 351 349 349 349 350 349 349 348 349 346 345 347 348 345 342 340 338
344 344 343 344 344 346 346 345 345 345 346 346 346 347 347 347 347 347 344 344 344 347 348 348 349 348 351 351 351 352 350 349 350 350 349 349 348 347 348 347 346 345 341
345 343 343 344 345 345 347 346 345 345 344 345 346 347 347 347 348 348 345 346 344 346 346 348 349 347 350 351 352 352 351 350 350 351 350 350 347 349 349 347 348 349 347
346 344 343 344 345 346 347 347 347 346 345 346 345 346 346 347 348 348 345 347 346 345 343 347 349 347 349 351 351 351 351 349 350 351 350 349 350 350 351 351 350 351 349
343 344 344 345 345 345 346 348 348 347 345 346 346 346 347 347 349 348 348 347 344 344 338 338 345 350 350 351 351 351 350 351 348 349 349 349 350 350 350 349 350 349 349
345 343 344 346 345 346 347 348 349 348 347 347 347 347 351 349 350 349 349 348 345 343 342 347 345 349 350 351 352 349 349 348 348 349 348 349 350 350 350 349 349 348 348
343 342 343 345 347 347 349 349 350 350 349 349 348 348 350 351 350 349 349 349 347 347 344 348 347 347 348 349 350 350 349 348 349 348 349 350 351 350 349 349 349 349 348
345 346 342 345 347 348 349 351 352 351 350 350 349 349 349 351 350 350 351 349 349 349 347 347 349 349 350 349 348 347 346 338 349 349 349 347 349 349 348 349 349 348 346
344 344 344 345 346 347 347 350 350 350 351 351 350 349 350 352 351 350 350 350 349 347 348 348 350 350 348 348 347 346 346 348 348 349 348 348 346 347 347 349 349 347 348
339 340 341 340 342 342 342 343 346 348 348 349 349 349 350 349 348 347 348 348 347 345 347 346 347 347 348 348 347 347 346 346 346 347 347 347 346 346 347 347 347 346 347
334 334 335 337 341 342 342 342 342 343 344 346 346 347 348 348 347 346 347 347 346 345 346 346 345 344 343 344 341 341 344 343 346 348 347 345 345 344 344 344 341 339 334
326 328 329 330 333 339 343 344 343 343 341 344 345 347 347 347 347 346 346 345 346 346 346 345 344 343 343 340 337 341 343 343 344 342 340 337 337 339 339 339 337 328 330
323 323 326 328 331 337 340 343 344 345 345 344 344 345 345 346 345 343 342 342 344 344 344 343 342 342 337 336 336 340 343 342 341 340 336 326 326 330 325 326 322 329 326
321 323 324 325 327 331 338 339 341 343 336 341 345 345 345 344 343 343 342 343 342 341 339 336 329 327 327 331 338 341 339 339 334 332 321 318 318 318 318 317 320 326 322
320 322 322 323 326 329 331 330 330 333 339 341 343 342 342 342 341 341 341 340 338 333 328 324 321 319 323 327 333 333 331 326 323 318 316 317 318 318 318 321 322 322 320
318 319 322 322 324 326 329 329 328 330 331 336 336 335 339 340 339 339 337 334 332 330 324 321 319 318 317 320 325 328 328 325 322 317 316 318 318 318 318 319 319 318 318
316 317 317 318 319 321 324 326 327 327 330 330 328 329 331 329 331 332 331 330 330 329 326 323 320 317 315 315 315 320 320 320 317 315 314 316 316 315 315 314 313 313 312
315 315 316 316 316 317 318 320 323 324 323 323 324 325 325 326 325 325 323 322 321 322 323 322 320 317 315 313 314 314 314 314 314 313 313 313 312 311 309 309 308 308 309
313 313 313 313 314 314 315 316 317 320 320 317 316 317 319 321 321 320 319 321 321 318 321 322 320 317 316 314 309 307 307 305 306 312 312 312 311 309 308 308 308 308 306
Wind_Speed
17 25 28 32 32 31 28 26 24 21 19 17 16 13 14 10 11 8 7 7 7 3 2 6 6 6 7 9 11 9 8 10 5 0 2 2 3 5 5 4 4 5 4
12 18 24 27 31 34 30 30 26 23 20 16 16 15 14 13 13 9 9 8 6 4 2 4 5 5 6 7 9 11 11 11 7 3 4 2 4 8 7 7 6 5 3
16 16 23 26 28 31 33 31 26 26 23 15 15 16 14 11 15 10 10 8 7 5 3 2 3 4 4 6 8 10 11 6 11 8 3 2 2 1 2 6 7 3 2
17 17 23 23 27 33 32 29 29 27 23 19 16 17 16 17 15 12 9 7 6 6 4 3 1 3 3 5 5 6 9 7 6 8 6 3 3 2 2 7 4 4 4
17 19 26 29 32 30 34 30 28 26 22 20 17 16 16 16 14 13 10 8 8 8 7 6 5 2 2 4 4 4 6 7 9 5 2 2 2 3 3 2 5 11 12
17 21 29 27 27 29 29 32 30 27 24 20 17 16 17 17 15 13 12 11 11 9 6 11 8 6 4 3 4 3 3 4 5 4 3 2 1 1 1 1 3 5 4
17 17 17 24 23 26 30 33 33 29 26 23 19 18 16 15 15 14 14 15 15 14 11 8 11 9 6 6 4 4 5 3 3 2 2 4 3 3 2 1 1 2 4
17 19 23 26 27 29 32 33 34 32 30 27 25 20 19 17 16 15 14 17 18 16 13 13 13 11 9 7 7 5 4 3 4 3 2 4 2 1 4 2 1 2 3
15 19 23 26 27 29 31 37 36 35 32 30 27 23 20 19 19 14 16 16 16 16 13 12 13 11 11 9 9 8 6 7 6 4 5 7 5 4 3 2 2 2 1
13 13 19 26 28 31 36 38 39 39 35 31 29 27 25 21 18 17 18 13 14 13 15 12 16 13 11 10 10 9 7 6 6 7 4 5 4 4 5 5 1 5 4
15 13 18 25 30 29 30 36 35 36 36 33 30 28 27 23 18 18 18 14 13 14 14 12 13 14 13 11 11 11 10 9 7 8 7 7 6 6 4 2 3 1 2
18 16 22 23 27 33 30 32 35 38 38 35 31 30 26 24 21 19 16 15 13 12 14 15 14 14 11 10 13 11 11 11 11 9 8 8 6 6 6 4 3 2 1
4 9 16 21 24 28 30 34 36 39 38 34 32 29 26 26 25 22 19 18 14 12 11 12 15 14 11 11 10 11 11 11 11 11 13 13 10 9 7 5 4 2 1
5 5 5 11 21 25 30 31 32 36 38 35 32 31 30 28 27 25 23 21 19 15 15 11 10 12 12 12 11 11 9 5 11 10 9 9 11 12 10 8 7 5 5
7 4 4 6 14 20 24 26 28 36 38 36 34 35 32 31 26 26 25 24 22 19 16 13 12 12 11 11 11 12 14 13 15 12 10 9 7 10 9 9 8 7 5
9 7 5 4 3 9 14 26 32 34 36 35 36 32 30 30 25 25 26 23 22 15 16 14 12 11 9 8 10 10 11 15 15 13 11 10 8 7 7 8 7 6 5
9 7 8 7 7 5 3 2 8 20 23 25 27 28 28 27 21 20 19 25 17 15 20 16 15 13 11 9 8 8 7 9 13 13 12 10 7 6 7 9 6 4 3
8 7 13 6 2 5 2 3 4 7 13 16 19 20 22 21 18 18 14 17 18 23 24 20 11 11 8 6 6 6 8 8 9 10 11 9 8 7 9 9 7 4 3
11 6 14 10 5 3 7 9 9 11 16 16 19 20 18 16 20 21 16 9 18 22 19 21 20 14 10 9 4 2 6 8 7 5 4 5 5 7 10 10 8 5 4
14 17 14 13 11 8 6 13 10 9 10 15 19 18 18 17 17 13 10 14 17 15 18 18 14 12 11 9 6 7 12 13 12 7 4 6 5 6 7 8 9 13 12
11 10 10 11 10 6 9 14 11 11 7 16 9 10 12 15 10 10 11 10 9 13 15 13 10 10 8 6 10 12 12 13 13 13 14 11 9 7 5 6 9 13 13
6 9 12 13 12 11 16 18 13 6 13 16 14 12 12 16 15 9 10 12 15 16 16 15 12 9 8 8 9 9 10 13 14 13 10 9 7 6 5 6 10 11 11
6 8 13 16 17 14 14 17 14 13 14 17 16 16 17 15 14 14 14 14 14 14 14 13 13 11 9 8 8 9 13 12 11 10 8 7 7 7 7 6 6 6 8
9 8 11 16 17 18 17 16 14 15 17 19 18 17 14 13 13 13 13 13 12 11 11 10 10 10 9 9 10 10 10 10 9 8 9 9 9 8 8 8 8 7 7
7 9 12 14 14 15 17 15 13 16 22 21 19 17 17 15 14 13 12 9 7 6 7 7 8 9 5 5 6 8 8 8 8 10 12 12 11 10 10 9 8 7 8
9 9 9 11 11 13 15 13 12 12 14 16 14 13 12 13 11 12 12 12 11 8 7 5 7 7 3 2 1 2 3 5 8 13 12 10 9 10 11 11 11 11 11
Wind_Direction
177 171 173 182 189 188 182 176 172 165 163 163 170 184 185 184 196 186 175 159 161 135 71 95 123 87 68 61 39 65 74 61 38 358 172 95 269 291 260 299 298 309 313
150 165 174 176 188 188 187 184 179 177 178 182 183 187 190 204 199 198 190 175 177 163 151 93 124 91 81 77 49 48 56 51 56 77 93 69 55 71 121 117 89 87 68
167 168 175 178 188 192 188 182 180 179 180 183 181 175 182 195 182 189 195 195 188 167 170 143 104 89 95 83 60 50 61 97 63 70 97 104 204 247 95 105 105 94 92
172 170 175 181 189 194 188 183 179 176 182 181 176 187 187 173 187 193 196 195 197 191 180 199 188 129 90 109 86 57 63 67 99 78 68 90 145 143 314 254 275 279 298
175 174 181 185 189 190 189 185 186 183 188 186 188 186 187 191 194 202 207 204 200 212 207 199 211 222 158 155 138 95 81 79 83 75 115 85 47 84 184 272 290 285 296
182 182 183 182 186 191 190 193 190 186 185 184 185 191 193 195 198 201 209 215 207 215 218 209 212 225 232 202 192 164 122 111 97 66 48 115 189 261 181 117 281 286 302
177 180 175 180 182 184 193 195 193 191 190 191 196 197 195 195 205 211 216 220 211 216 220 223 211 212 236 234 220 189 189 180 162 124 72 115 61 55 75 44 338 329 314
183 179 182 182 182 187 193 194 198 200 197 199 202 202 203 208 217 224 228 219 223 221 222 227 215 219 221 237 230 241 224 177 199 208 224 189 141 21 46 13 154 336 332
185 183 182 183 185 187 193 196 202 205 205 205 207 208 207 217 225 232 225 222 221 220 213 217 213 220 226 225 233 231 240 245 234 213 229 215 218 233 231 292 294 146 21
165 175 182 184 191 190 196 198 205 209 210 212 210 211 215 219 225 223 214 218 228 229 220 223 213 218 223 220 228 232 231 236 226 218 214 205 214 215 223 220 247 258 203
168 181 183 187 193 194 193 201 204 209 213 215 216 217 218 219 219 220 210 228 240 231 219 220 220 220 225 236 227 229 241 247 259 240 245 224 217 225 209 197 226 201 187
188 185 188 183 189 192 195 200 205 211 217 216 219 219 222 219 217 213 220 229 235 243 230 225 227 215 215 227 223 239 243 258 257 239 243 250 249 224 225 238 256 289 333
188 203 186 182 191 189 194 201 206 211 216 217 216 220 219 219 220 223 225 231 234 228 220 232 222 220 222 235 239 243 246 259 251 255 259 255 253 252 252 257 255 264 297
195 213 188 191 190 186 192 200 205 210 214 218 216 220 220 221 226 230 233 234 236 229 224 233 230 229 234 236 235 235 228 264 243 246 262 267 245 253 251 243 243 244 277
57 31 186 191 192 189 195 200 200 206 213 214 216 221 222 225 226 231 236 242 239 239 236 238 247 237 228 224 233 248 216 207 235 231 244 252 251 255 259 260 253 261 259
112 71 63 49 205 229 202 197 202 203 208 208 214 220 223 224 226 235 237 242 242 242 246 238 241 230 224 236 252 250 218 219 221 221 225 236 246 240 244 237 235 248 266
57 57 84 52 28 23 341 249 196 196 200 202 209 212 213 222 220 232 238 235 232 226 235 230 224 221 236 248 269 275 266 247 234 224 218 219 225 233 230 240 236 224 234
49 22 58 29 290 254 279 262 263 223 219 226 236 223 217 207 196 213 227 236 237 243 240 226 235 234 237 250 269 251 239 240 242 219 209 222 223 213 200 199 190 188 237
22 34 44 13 332 254 231 235 258 266 254 250 240 228 203 198 204 212 217 244 250 232 214 208 204 223 237 231 248 265 217 193 184 174 192 213 211 189 187 194 189 171 138
7 3 6 26 13 343 220 180 184 224 239 258 256 246 247 234 199 187 207 243 239 214 207 192 195 207 217 221 217 225 196 171 161 159 194 181 191 183 185 197 179 155 141
4 16 37 40 23 27 128 125 158 204 219 250 246 263 211 180 178 185 197 210 189 181 173 168 158 162 168 180 192 204 196 185 172 168 167 167 162 159 162 174 171 162 152
38 54 44 43 44 65 100 100 104 143 164 154 163 175 172 165 158 174 181 182 171 159 154 152 147 140 135 140 154 166 171 165 160 158 161 159 162 144 129 140 148 158 158
44 70 83 68 57 61 73 78 73 93 122 145 142 141 154 149 143 162 157 161 165 166 163 162 156 152 143 137 136 147 166 160 160 159 162 155 156 156 151 138 144 174 179
46 50 62 67 65 64 61 65 75 91 97 97 99 104 110 110 134 145 147 157 158 161 170 176 175 166 157 153 148 149 152 157 163 162 163 157 154 152 147 150 156 160 159
68 76 77 67 59 68 69 61 67 84 91 93 96 95 98 100 103 101 97 99 103 123 153 146 171 166 178 173 162 156 155 161 165 160 157 156 154 146 139 133 128 129 138
94 76 62 79 67 63 67 64 72 71 79 79 79 89 97 101 97 102 99 95 98 94 88 139 166 167 162 171 209 209 197 203 201 193 191 185 182 162 150 142 135 135 133